Simultaneous Nadir Overpasses (SNOs) Predictions

Prediction of SNOs between FY3D and METOP-A Satellite Orbit:

Table of predicted SNOs for the next 14.0 days since TLE Epoch: 6/20/2019
Index Date (FY3D) Time (FY3D) Lat,Lon (FY3D) SZA (FY3D ) Date (METOP-A) Time (METOP-A) Lat,Lon (METOP-A) SZA (METOP-A ) Distance(km) Time Diff (sec)
1 07/03/2019 09:38:43 75.14, 22.56 52.59 07/03/2019 09:39:50 75.06, 25.28 52.32 78.30 67
2 07/03/2019 10:29:25 -75.02,-169.77 127.55 07/03/2019 10:30:34 -74.95,-167.69 127.77 60.28 69
3 07/03/2019 11:20:06 74.85, -1.97 52.26 07/03/2019 11:21:17 74.80, -0.78 52.11 35.03 71
4 07/03/2019 12:10:48 -74.73, 165.68 127.88 07/03/2019 12:12:01 -74.69, 166.26 127.98 17.27 73
5 07/03/2019 13:01:30 74.60, -26.66 51.98 07/03/2019 13:02:43 74.59, -26.69 51.95 1.55 73
6 07/03/2019 13:52:14 -74.57, 140.72 128.05 07/03/2019 13:53:25 -74.58, 140.61 128.06 3.33 71
7 07/03/2019 14:42:59 74.59, -52.01 51.97 07/03/2019 14:44:05 74.57, -52.07 51.94 3.21 66
8 07/03/2019 15:33:44 -74.62, 115.24 128.00 07/03/2019 15:34:46 -74.61, 115.35 128.03 3.26 62
9 07/03/2019 16:24:28 74.58, -77.36 51.97 07/03/2019 16:25:26 74.60, -77.34 51.97 1.84 58
10 07/03/2019 17:15:13 -74.61, 89.89 128.00 07/03/2019 17:16:08 -74.59, 89.96 128.04 2.89 55
11 07/03/2019 18:05:57 74.58,-102.71 51.97 07/03/2019 18:06:48 74.58,-102.73 51.96 0.73 51
12 07/03/2019 18:56:42 -74.60, 64.54 128.01 07/03/2019 18:57:30 -74.57, 64.57 128.05 3.39 48
13 07/03/2019 19:47:26 74.57,-128.06 51.97 07/03/2019 19:48:10 74.56,-128.12 51.95 1.80 44
14 07/03/2019 20:38:11 -74.59, 39.19 128.01 07/03/2019 20:38:51 -74.60, 39.31 128.02 3.64 40
15 07/03/2019 21:28:55 74.56,-153.41 51.96 07/03/2019 21:29:32 74.54,-153.50 51.94 3.40 37
16 07/03/2019 22:19:40 -74.58, 13.84 128.01 07/03/2019 22:20:13 -74.58, 13.92 128.03 2.39 33
17 07/03/2019 23:10:24 74.55,-178.76 51.96 07/03/2019 23:10:53 74.57,-178.77 51.97 2.30 29
18 07/04/2019 00:01:09 -74.58, -11.51 128.01 07/04/2019 00:01:35 -74.56, -11.47 128.04 1.91 26




NCC Satellite Simultaneous Nadir Overpasses (SNOs) Prediction Service
